Sigil TimeFrame

113 2024-04-21 10:55:02
NameTime LeftWindow Opens
Windstrike The Vile1d 23:102024-04-21 16:50:02
Beast of Cards1d 17:152024-04-21 22:45:02
Noxious Slug1d 17:102024-04-21 22:50:02
Slashbrood, Devourer of the Blackness1d 13:452024-04-22 02:15:02
Dlanod, the Crazed Chancellor1d 09:502024-04-22 06:10:02
Howldroid, Tormentor of the Pit1d 08:352024-04-22 07:25:02
Animation of Versatility1d 04:402024-04-22 11:20:01
Terrance, Rebel of Rallis1d 01:302024-04-22 14:30:02
Murfax, Beast of the Caves0d 22:202024-04-22 17:40:01
Ormsul the Putrid0d 21:502024-04-22 18:10:02
Nessam0d 20:102024-04-22 19:50:02
Crane0d 19:402024-04-22 20:20:02
Numerocure, The Black Messenger of Evil0d 15:352024-04-23 00:25:01
Bloodchill the Grizzly0d 14:452024-04-23 01:15:02
Gnorb0d 14:352024-04-23 01:25:02
Vitkros, Hydra of the Deep0d 11:252024-04-23 04:35:02
Ag Nabak the Abomination0d 10:352024-04-23 05:25:02
Garland, The Lord Keeper0d 08:152024-04-23 07:45:01
Felroc, Overseer of Hellfire0d 08:002024-04-23 08:00:02
Pinosis0d 07:352024-04-23 08:25:02
Freezebreed, The Frozen Manipulator0d 06:152024-04-23 09:45:01
Ebliss, Fallen Angel of Despair0d 03:452024-04-23 12:15:02
Synge, The Red Dragon0d 03:402024-04-23 12:20:01
Ganja the Stone Golem0d 03:402024-04-23 12:20:02
Murderface0d 03:402024-04-23 12:20:03
Tsort0d 03:252024-04-23 12:35:01
Great Lord Ganeshan0d 02:352024-04-23 13:25:01
Smoot the Yeti0d 02:002024-04-23 14:00:01
Villax, Twin of Strength0d 01:452024-04-23 14:15:02
Ancient Magus Tarkin0d 01:152024-04-23 14:45:01
Crolvak, the Fire Master0d 00:502024-04-23 15:10:02
Banok, Demon of Insanity0d 00:402024-04-23 15:20:01
Wanhiroeaz the Devourer0d 00:402024-04-23 15:20:02
Zertan, The Collector0d 01:092024-04-23 17:10:01
Tylos, The Lord Master0d 01:242024-04-23 17:25:01
Rillax, Twin of Wisdom0d 01:592024-04-23 18:00:03
Xynak, the Arcane Master0d 02:542024-04-23 18:55:02
Brutalitar, Lord of the Underworld0d 03:142024-04-23 19:15:01
Lord Varan0d 03:142024-04-23 19:15:02
Jazzmin, Maiden of Vitality0d 03:392024-04-23 19:40:02
Hyrak, Bringer of Nightmares0d 03:592024-04-23 20:00:02
Gorganus of the Wood0d 04:092024-04-23 20:10:02
Balerion, Dragon of Dread0d 05:192024-04-23 21:20:02
Quiver, The Renegade0d 05:542024-04-23 21:55:01
Lady Ariella0d 06:092024-04-23 22:10:02
Lord Xordam0d 07:042024-04-23 23:05:01
Rezun, Demon of Madness0d 07:392024-04-23 23:40:01
Volgan the Living Ironbark0d 08:042024-04-24 00:05:02
Karvaz, Lord of Alsayic0d 09:092024-04-24 01:10:01
Sarcrina the Astral Priestess0d 09:242024-04-24 01:25:01
Jorun the Blazing Swordsman0d 10:492024-04-24 02:50:02
Envar, Demon of Lunacy0d 12:292024-04-24 04:30:02
Baron Mu, Dark Rider of the Undead0d 13:192024-04-24 05:20:01
Samatha Dark-Soul0d 14:242024-04-24 06:25:01
Lord Narada0d 16:042024-04-24 08:05:01
Melt Bane, The Forbidden Demon Dragon0d 16:192024-04-24 08:20:02
Lord Suka0d 16:292024-04-24 08:30:02
Varsanor, Master of Darkness0d 17:092024-04-24 09:10:01
Lady Chaos, Queen of the Abyss0d 18:342024-04-24 10:35:01
Straya, the Underworld Ruler0d 18:442024-04-24 10:45:01
Anvilfist0d 19:042024-04-24 11:05:02
Akkel the Enflamed Warrior0d 19:392024-04-24 11:40:01
Anguish0d 20:592024-04-24 13:00:01
Shadow0d 21:292024-04-24 13:30:01
Dexor, Victor of Veldara0d 21:342024-04-24 13:35:01
Keeper of Nature0d 21:592024-04-24 14:00:02
Bolkor, the Holy Master0d 23:242024-04-24 15:25:02
The Emerald Assassin0d 23:592024-04-24 16:00:02
Traxodon the Plaguebringer1d 01:342024-04-24 17:35:02
Skarthul the Avenged1d 02:092024-04-24 18:10:01
Mistress of the Sword1d 02:442024-04-24 18:45:02
Raiyar, the Shadow Master1d 05:192024-04-24 21:20:02
Kretok, Descendant of Nature1d 05:242024-04-24 21:25:02
Lacuste of the Swarm1d 06:492024-04-24 22:50:01
Rotborn, Eater of the Dead1d 06:592024-04-24 23:00:01
Amalgamated Apparition1d 07:492024-04-24 23:50:02
Nafir, God of Desolation1d 08:292024-04-25 00:30:01
Archdevil Yirkon1d 09:142024-04-25 01:15:01
Rancid, Lord of Thugs1d 10:392024-04-25 02:40:02
Nayark the Mummified Sorcerer1d 11:492024-04-25 03:50:01
Esquin, the Kinetic Master1d 11:592024-04-25 04:00:02
Nar Zhul, Slayer of All1d 13:092024-04-25 05:10:01
Dreg nor, Keeper of the Infernal Essence1d 14:242024-04-25 06:25:01
Viserion, the Necrodragon1d 14:242024-04-25 06:25:01
Threk, King of Lords1d 14:392024-04-25 06:40:02
Valzek, Harbinger of Death1d 15:042024-04-25 07:05:01
Detox1d 17:142024-04-25 09:15:02
Animated Captain1d 18:092024-04-25 10:10:01
Holgor, the Holy Deity1d 20:442024-04-25 12:45:02
Crantos, Defender of Ultimation1d 21:342024-04-25 13:35:01
Shayar, the Shadow Deity1d 23:342024-04-25 15:35:02
Lord Sibannac1d 23:492024-04-25 15:50:03
Sigil, Lich of Woe2d 00:142024-04-25 16:15:02
Sylvanna TorLai2d 03:042024-04-25 19:05:01
Q-SEC Commander2d 04:092024-04-25 20:10:01
Jade Dragonite2d 08:292024-04-26 00:30:01
Gregov, Knight of the Woods2d 09:142024-04-26 01:15:01
Firan, the Fire Deity2d 11:542024-04-26 03:55:02
King Ashnar, Lord of the Unliving2d 15:392024-04-26 07:40:01
Agnar, Astral Betrayer2d 17:592024-04-26 10:00:02
Arcon, the Arcane Deity2d 20:092024-04-26 12:10:01
Hackerphage, Protector of the Gateway2d 21:492024-04-26 13:50:02
Grivvek, Protector of the Brood3d 02:392024-04-26 18:40:02
Skybrine The Inescapable3d 10:592024-04-27 03:00:02
Old World Drake3d 13:242024-04-27 05:25:01
Kinark, the Kinetic Deity3d 15:492024-04-27 07:50:01
Kro Shuk, Doomslayer4d 04:242024-04-27 20:25:01
Emperor Neudeus, Controller of the Universe4d 13:292024-04-28 05:30:01
Thanox, Balancer of Chaos4d 20:092024-04-28 12:10:01
Zikkir the Dark Archer1055d 20:002021-06-02 20:00:01
Rook, Hand of Arkron389d 15:502023-03-31 00:10:02
Shaik, Servant of Arkron388d 17:502023-03-31 22:10:02
RNGesus169d 22:002023-11-05 18:00:02